• în Republica Moldova
  • Lista ţărilor
  • Pe 7 zile
  • Temperatura apei
  • Hartă satelitară
  • Meteo pe hartă
  • Widget-uri
  • user-avatar
    Intrare

    Meteo pe oră la Mostische

    Astăzi, 22 Februarie, Vineri

    Timp Temperatura Precipitaţii Vânt Presiune Umiditate
    00:00 -14°C° 0.1 mm 7 m/s 744 mmHg 83%
    01:00 -14°C° 0.1 mm 7 m/s 744 mmHg 83%
    02:00 -16°C° 0 mm 8 m/s 745 mmHg 83%
    03:00 -16°C° 0.1 mm 8 m/s 745 mmHg 83%
    04:00 -16°C° 0.1 mm 8 m/s 746 mmHg 82%
    05:00 -16°C° 0.1 mm 8 m/s 746 mmHg 82%
    06:00 -16°C° 0.1 mm 8 m/s 747 mmHg 81%
    07:00 -16°C° 0.1 mm 8 m/s 748 mmHg 80%
    08:00 -16°C° 0 mm 8 m/s 749 mmHg 80%
    09:00 -16°C° 0.1 mm 8 m/s 750 mmHg 78%
    10:00 -16°C° 0.1 mm 8 m/s 750 mmHg 76%
    11:00 -15°C° 0.1 mm 9 m/s 751 mmHg 74%
    12:00 -15°C° 0 mm 8 m/s 752 mmHg 73%
    13:00 -13°C° 0 mm 8 m/s 753 mmHg 72%
    14:00 -13°C° 0 mm 8 m/s 754 mmHg 68%
    15:00 -13°C° 0 mm 7 m/s 754 mmHg 70%
    16:00 -13°C° 0 mm 7 m/s 755 mmHg 72%
    17:00 -12°C° 0 mm 6 m/s 756 mmHg 75%
    18:00 -12°C° 0 mm 6 m/s 757 mmHg 78%
    19:00 -12°C° 0 mm 6 m/s 758 mmHg 81%
    20:00 -12°C° 0 mm 6 m/s 758 mmHg 84%
    21:00 -13°C° 0 mm 5 m/s 759 mmHg 86%
    22:00 -13°C° 0 mm 5 m/s 759 mmHg 88%
    23:00 -14°C° 0 mm 5 m/s 760 mmHg 90%

    Mâine, 23 Februarie, Sâmbătă

    Timp Temperatura Precipitaţii Vânt Presiune Umiditate
    00:00 -15°C° 0 mm 4 m/s 760 mmHg 91%
    01:00 -15°C° 0 mm 3 m/s 761 mmHg 92%
    02:00 -16°C° 0 mm 3 m/s 761 mmHg 92%
    03:00 -17°C° 0 mm 3 m/s 761 mmHg 93%
    04:00 -16°C° 0 mm 2 m/s 761 mmHg 94%
    05:00 -17°C° 0 mm 2 m/s 761 mmHg 95%
    06:00 -16°C° 0 mm 2 m/s 761 mmHg 93%
    07:00 -16°C° 0 mm 2 m/s 761 mmHg 91%
    08:00 -15°C° 0 mm 2 m/s 761 mmHg 90%
    09:00 -13°C° 0 mm 2 m/s 761 mmHg 87%
    10:00 -12°C° 0 mm 3 m/s 760 mmHg 84%
    11:00 -10°C° 0 mm 3 m/s 760 mmHg 81%
    12:00 -10°C° 0 mm 4 m/s 759 mmHg 80%
    13:00 -9°C° 0 mm 4 m/s 758 mmHg 80%
    14:00 -9°C° 0 mm 4 m/s 758 mmHg 79%
    15:00 -9°C° 0.3 mm 4 m/s 757 mmHg 83%
    16:00 -10°C° 0.3 mm 5 m/s 756 mmHg 87%
    17:00 -10°C° 0.3 mm 5 m/s 755 mmHg 91%
    18:00 -10°C° 0.2 mm 5 m/s 755 mmHg 91%
    19:00 -8°C° 0.2 mm 4 m/s 754 mmHg 91%
    20:00 -8°C° 0.2 mm 4 m/s 754 mmHg 91%
    21:00 -8°C° 0.2 mm 4 m/s 753 mmHg 92%
    22:00 -7°C° 0.2 mm 4 m/s 753 mmHg 93%
    23:00 -6°C° 0.2 mm 3 m/s 752 mmHg 94%

    Poimâine, 24 Februarie, Duminică

    Timp Temperatura Precipitaţii Vânt Presiune Umiditate
    00:00 -5°C° 0.2 mm 3 m/s 752 mmHg 94%
    01:00 -4°C° 0.2 mm 3 m/s 752 mmHg 95%
    02:00 -2°C° 0.2 mm 3 m/s 752 mmHg 95%
    03:00 -2°C° 0.1 mm 3 m/s 752 mmHg 96%
    04:00 -1°C° 0.1 mm 3 m/s 752 mmHg 96%
    05:00 0°C° 0.1 mm 3 m/s 752 mmHg 97%
    06:00 0°C° 0.1 mm 3 m/s 752 mmHg 97%
    07:00 0°C° 0.1 mm 3 m/s 752 mmHg 98%
    08:00 0°C° 0.1 mm 3 m/s 753 mmHg 98%
    09:00 0°C° 0 mm 3 m/s 753 mmHg 99%
    10:00 0°C° 0 mm 3 m/s 753 mmHg 99%
    11:00 0°C° 0 mm 3 m/s 753 mmHg 99%
    12:00 0°C° 0 mm 3 m/s 753 mmHg 99%
    13:00 0°C° 0 mm 3 m/s 753 mmHg 99%
    14:00 0°C° 0 mm 3 m/s 753 mmHg 99%
    15:00 0°C° 0 mm 3 m/s 753 mmHg 98%
    16:00 0°C° 0 mm 3 m/s 753 mmHg 97%
    17:00 0°C° 0 mm 3 m/s 753 mmHg 96%
    18:00 +1°C° 0 mm 2 m/s 753 mmHg 96%
    19:00 -1°C° 0 mm 2 m/s 753 mmHg 95%
    20:00 -1°C° 0 mm 2 m/s 752 mmHg 95%
    21:00 -1°C° 0 mm 2 m/s 752 mmHg 95%
    22:00 -1°C° 0 mm 3 m/s 751 mmHg 95%
    23:00 0°C° 0 mm 3 m/s 751 mmHg 95%

    25 Februarie, Luni

    Timp Temperatura Precipitaţii Vânt Presiune Umiditate
    00:00 0°C° 0.5 mm 3 m/s 750 mmHg 95%
    01:00 -1°C° 0.5 mm 4 m/s 749 mmHg 95%
    02:00 -1°C° 0.5 mm 4 m/s 748 mmHg 94%
    03:00 -1°C° 0.6 mm 4 m/s 747 mmHg 94%
    04:00 -1°C° 0.6 mm 4 m/s 746 mmHg 94%
    05:00 -1°C° 0.6 mm 4 m/s 745 mmHg 93%
    06:00 -1°C° 0.3 mm 5 m/s 745 mmHg 93%
    07:00 0°C° 0.3 mm 5 m/s 745 mmHg 92%
    08:00 -1°C° 0.3 mm 6 m/s 745 mmHg 91%
    09:00 -1°C° 0 mm 6 m/s 745 mmHg 90%
    10:00 -2°C° 0 mm 6 m/s 745 mmHg 89%
    11:00 -2°C° 0 mm 6 m/s 745 mmHg 89%
    12:00 -2°C° 0.1 mm 6 m/s 745 mmHg 87%
    13:00 -2°C° 0.1 mm 6 m/s 745 mmHg 85%
    14:00 -2°C° 0.1 mm 6 m/s 745 mmHg 84%
    15:00 -2°C° 0.1 mm 6 m/s 745 mmHg 84%
    16:00 -2°C° 0.1 mm 6 m/s 744 mmHg 85%
    17:00 -2°C° 0.1 mm 6 m/s 744 mmHg 85%
    18:00 -3°C° 0.2 mm 6 m/s 744 mmHg 86%
    19:00 -2°C° 0.2 mm 5 m/s 744 mmHg 87%
    20:00 -2°C° 0.2 mm 5 m/s 744 mmHg 87%
    21:00 -3°C° 0.1 mm 6 m/s 744 mmHg 87%
    22:00 -3°C° 0.1 mm 6 m/s 744 mmHg 86%
    23:00 -3°C° 0.1 mm 6 m/s 744 mmHg 86%

    26 Februarie, Marţi

    Timp Temperatura Precipitaţii Vânt Presiune Umiditate
    00:00 -2°C° 0 mm 5 m/s 744 mmHg 87%
    01:00 -4°C° 0 mm 5 m/s 745 mmHg 88%
    02:00 -3°C° 0 mm 4 m/s 745 mmHg 89%
    03:00 -4°C° 0 mm 4 m/s 745 mmHg 91%
    04:00 -5°C° 0 mm 3 m/s 745 mmHg 92%
    05:00 -6°C° 0 mm 3 m/s 745 mmHg 94%
    06:00 -5°C° 0 mm 3 m/s 744 mmHg 93%
    07:00 -4°C° 0 mm 3 m/s 744 mmHg 93%
    08:00 -2°C° 0 mm 3 m/s 744 mmHg 92%
    09:00 -2°C° 0.1 mm 3 m/s 743 mmHg 92%
    10:00 -2°C° 0.1 mm 2 m/s 743 mmHg 92%
    11:00 -1°C° 0.1 mm 2 m/s 742 mmHg 92%
    12:00 -1°C° 0.2 mm 2 m/s 742 mmHg 92%
    13:00 -1°C° 0.2 mm 2 m/s 742 mmHg 93%
    14:00 -1°C° 0.2 mm 2 m/s 742 mmHg 94%
    15:00 -1°C° 0.1 mm 2 m/s 742 mmHg 94%
    16:00 -2°C° 0.1 mm 2 m/s 742 mmHg 94%
    17:00 -2°C° 0.1 mm 2 m/s 743 mmHg 94%
    18:00 -2°C° 0 mm 3 m/s 743 mmHg 93%
    19:00 -2°C° 0 mm 3 m/s 744 mmHg 92%
    20:00 -3°C° 0 mm 4 m/s 745 mmHg 91%
    21:00 -3°C° 0 mm 4 m/s 745 mmHg 91%
    22:00 -2°C° 0 mm 3 m/s 746 mmHg 91%
    23:00 -2°C° 0 mm 3 m/s 746 mmHg 91%

    27 Februarie, Miercuri

    Timp Temperatura Precipitaţii Vânt Presiune Umiditate
    00:00 -4°C° 0 mm 3 m/s 747 mmHg 91%
    01:00 -4°C° 0 mm 4 m/s 747 mmHg 91%
    02:00 -4°C° 0 mm 4 m/s 748 mmHg 91%
    03:00 -4°C° 0 mm 3 m/s 748 mmHg 90%
    04:00 -4°C° 0 mm 3 m/s 748 mmHg 89%
    05:00 -5°C° 0 mm 3 m/s 748 mmHg 88%
    06:00 -5°C° 0 mm 3 m/s 748 mmHg 89%
    07:00 -4°C° 0 mm 2 m/s 748 mmHg 90%
    08:00 -4°C° 0 mm 2 m/s 748 mmHg 92%
    09:00 -3°C° 0 mm 2 m/s 747 mmHg 90%
    10:00 -2°C° 0 mm 2 m/s 747 mmHg 88%
    11:00 -1°C° 0 mm 2 m/s 746 mmHg 86%
    12:00 -1°C° 0 mm 3 m/s 745 mmHg 87%
    13:00 -1°C° 0 mm 3 m/s 744 mmHg 89%
    14:00 -1°C° 0 mm 3 m/s 743 mmHg 91%
    15:00 -1°C° 0.1 mm 3 m/s 742 mmHg 91%
    16:00 -2°C° 0.1 mm 4 m/s 741 mmHg 92%
    17:00 -2°C° 0.1 mm 4 m/s 739 mmHg 92%
    18:00 -2°C° 0.9 mm 4 m/s 738 mmHg 92%
    19:00 -2°C° 0.9 mm 5 m/s 736 mmHg 92%
    20:00 -3°C° 0.9 mm 6 m/s 734 mmHg 93%
    21:00 -3°C° 0.3 mm 6 m/s 733 mmHg 91%
    22:00 -3°C° 0.3 mm 6 m/s 731 mmHg 90%
    23:00 -2°C° 0.3 mm 5 m/s 730 mmHg 89%
    Arată mai mult